�N����,����,�g�[���i�L�b�`���j���x,�g�[�����x,��g�[���i���ʏ��j���x,����
 2003/06/01, 0:00,25.3,61,22.1,22.4
 2003/06/01, 0:15,25.2,61,22.2,22.4
 2003/06/01, 0:30,25.2,61,22,22.5
 2003/06/01, 0:45,25,61,22,22.5
 2003/06/01, 1:00,24.9,62,22.1,22.6
 2003/06/01, 1:15,24.8,62,21.9,21.8
 2003/06/01, 1:30,24.8,62,21.9,21.8
 2003/06/01, 1:45,24.7,62,21.8,21.9
 2003/06/01, 2:00,24.6,62,21.7,21.9
 2003/06/01, 2:15,24.5,62,21.6,22
 2003/06/01, 2:30,24.5,62,21.5,22
 2003/06/01, 2:45,24.4,63,21.4,22
 2003/06/01, 3:00,24.3,63,21.3,22.1
 2003/06/01, 3:15,24.3,63,21.3,22.1
 2003/06/01, 3:30,24.2,63,21.3,22.2
 2003/06/01, 3:45,24.2,63,21.2,22.2
 2003/06/01, 4:00,24.1,63,21.1,22.3
 2003/06/01, 4:15,24.1,62,20.9,22.3
 2003/06/01, 4:30,24.1,62,21,22.3
 2003/06/01, 4:45,24,62,20.6,21.5
 2003/06/01, 5:00,24.1,61,20.6,21.5
 2003/06/01, 5:15,24.1,61,20.6,21.6
 2003/06/01, 5:30,24.1,61,20.6,21.6
 2003/06/01, 5:45,24.1,61,20.7,21.7
 2003/06/01, 6:00,24.1,61,20.5,21.7
 2003/06/01, 6:15,24,61,20.4,21.7
 2003/06/01, 6:30,23.9,61,20.5,21.8
 2003/06/01, 6:45,23.9,60,20.6,21.8
 2003/06/01, 7:00,23.8,60,20.8,21.9
 2003/06/01, 7:15,23.9,61,21.3,20.7
 2003/06/01, 7:30,24.1,61,21.3,20.7
 2003/06/01, 7:45,24.1,61,21.4,20.8
 2003/06/01, 8:00,24.1,61,21.4,20.6
 2003/06/01, 8:15,23.8,59,21.2,20.7
 2003/06/01, 8:30,23.8,60,21.1,20.8
 2003/06/01, 8:45,23.5,60,21.2,20.4
 2003/06/01, 9:00,23.4,60,21.1,20.5
 2003/06/01, 9:15,23.3,60,21.1,20.6
 2003/06/01, 9:30,23.2,62,21,20.6
 2003/06/01, 9:45,23.1,62,20.9,20.7
 2003/06/01,10:00,22.9,62,21,20.7
 2003/06/01,10:15,22.9,62,21.4,20.8
 2003/06/01,10:30,22.9,62,21.7,20.8
 2003/06/01,10:45,22.9,61,21.9,20.9
 2003/06/01,11:00,23,62,21.6,20.9
 2003/06/01,11:15,22.9,61,21.8,20.7
 2003/06/01,11:30,22.9,61,21.7,20.7
 2003/06/01,11:45,22.8,61,21.8,20.8
 2003/06/01,12:00,22.9,60,21.8,20.8
 2003/06/01,12:15,22.9,60,21.9,20.9
 2003/06/01,12:30,22.9,59,22.5,20.9
 2003/06/01,12:45,22.9,60,23,20.9
 2003/06/01,13:00,23,59,23.6,20.4
 2003/06/01,13:15,23.3,59,24.3,20.5
 2003/06/01,13:30,23.3,59,25.2,20.6
 2003/06/01,13:45,23.5,59,25.9,20.6
 2003/06/01,14:00,23.6,59,27,20.5
 2003/06/01,14:15,23.6,58,26.7,20.6
 2003/06/01,14:30,23.6,58,26.2,20.7
 2003/06/01,14:45,23.8,58,26.3,20.7
 2003/06/01,15:00,23.8,57,25.8,20.8
 2003/06/01,15:15,23.9,57,25.3,20.9
 2003/06/01,15:30,23.8,57,24.6,21
 2003/06/01,15:45,23.8,57,24.3,21
 2003/06/01,16:00,23.7,57,24.1,21.1
 2003/06/01,16:15,23.7,57,23.9,21.2
 2003/06/01,16:30,23.7,57,23.7,21.3
 2003/06/01,16:45,23.6,57,23.5,21.4
 2003/06/01,17:00,23.6,56,23.3,21.4
 2003/06/01,17:15,23.5,56,23.2,21.5
 2003/06/01,17:30,23.5,56,23.8,21.6
 2003/06/01,17:45,23.6,57,23.6,21.7
 2003/06/01,18:00,23.6,58,23.2,21.7
 2003/06/01,18:15,23.7,57,23.1,21.8
 2003/06/01,18:30,23.7,57,23.5,21.8
 2003/06/01,18:45,23.6,56,22.9,21.9
 2003/06/01,19:00,23.7,57,22.6,21.9
 2003/06/01,19:15,23.6,56,22.6,22
 2003/06/01,19:30,23.6,55,22.1,22.1
 2003/06/01,19:45,23.4,55,21.8,21.5
 2003/06/01,20:00,23.4,55,21.5,21.5
 2003/06/01,20:15,23.3,54,21.6,21.5
 2003/06/01,20:30,23.2,54,21.3,21.6
 2003/06/01,20:45,23.1,54,21.2,21.6
 2003/06/01,21:00,23,54,21,21.7
 2003/06/01,21:15,22.9,54,20.8,21.7
 2003/06/01,21:30,22.8,54,20.3,21.7
 2003/06/01,21:45,22.8,53,20.1,21.8
 2003/06/01,22:00,22.7,54,20,21.8
 2003/06/01,22:15,22.6,54,19.8,21.8
 2003/06/01,22:30,22.4,54,19.5,21.9
 2003/06/01,22:45,22.2,54,19.4,21.9
 2003/06/01,23:00,22.2,54,19.4,20.7
 2003/06/01,23:15,22.1,54,19.4,20.8
 2003/06/01,23:30,22,54,19.2,20.8
 2003/06/01,23:45,21.9,54,19.2,20.8
 2003/06/02, 0:00,21.8,55,19,20.8
 2003/06/02, 0:15,21.7,55,18.9,20.9
 2003/06/02, 0:30,21.5,55,18.7,20.9
 2003/06/02, 0:45,21.4,56,18.7,20.9
 2003/06/02, 1:00,21.3,56,18.4,21
 2003/06/02, 1:15,21.1,56,18.4,19.8
 2003/06/02, 1:30,21,56,18.1,19.8
 2003/06/02, 1:45,20.9,57,17.9,19.9
 2003/06/02, 2:00,20.8,57,17.6,19.9
 2003/06/02, 2:15,20.6,57,17.5,19.9
 2003/06/02, 2:30,20.5,57,17.3,19.9
 2003/06/02, 2:45,20.4,57,17.3,20
 2003/06/02, 3:00,20.3,57,17.3,20
 2003/06/02, 3:15,20.3,57,17.5,20
 2003/06/02, 3:30,20.2,58,17.5,20
 2003/06/02, 3:45,20.2,58,17.3,20.1
 2003/06/02, 4:00,20.1,58,17.3,20.1
 2003/06/02, 4:15,20.1,58,17.2,20.1
 2003/06/02, 4:30,20,58,17,20.1
 2003/06/02, 4:45,19.9,58,16.8,20.1
 2003/06/02, 5:00,19.7,58,16.6,20.1
 2003/06/02, 5:15,19.7,58,16.5,20.2
 2003/06/02, 5:30,19.6,58,16.5,20.2
 2003/06/02, 5:45,19.5,59,16.5,20.2
 2003/06/02, 6:00,19.5,59,16.7,19
 2003/06/02, 6:15,19.7,58,16.7,19
 2003/06/02, 6:30,20,60,17.3,19
 2003/06/02, 6:45,20.1,59,17.3,18.7
 2003/06/02, 7:00,20.2,60,17.9,18.8
 2003/06/02, 7:15,20.3,60,17.7,18.8
 2003/06/02, 7:30,20.5,59,17.9,18.8
 2003/06/02, 7:45,20.4,58,18.4,18.9
 2003/06/02, 8:00,20.6,59,18.3,18.9
 2003/06/02, 8:15,20.7,59,18.7,18.8
 2003/06/02, 8:30,20.8,57,19,18.8
 2003/06/02, 8:45,20.9,57,19.1,18.9
 2003/06/02, 9:00,21.1,54,19.3,18.9
 2003/06/02, 9:15,21.3,50,19.5,18.9
 2003/06/02, 9:30,21.5,48,19.8,18.9
 2003/06/02, 9:45,21.5,48,19.8,19
 2003/06/02,10:00,21.7,47,20.2,19
 2003/06/02,10:15,21.7,48,20.4,19.1
 2003/06/02,10:30,21.5,51,20.3,19.1
 2003/06/02,10:45,21.6,51,20.5,19.1
 2003/06/02,11:00,21.5,51,20.6,19.2
 2003/06/02,11:15,21.5,51,20.7,19.2
 2003/06/02,11:30,21.5,52,21,19.2
 2003/06/02,11:45,21.6,53,21.3,19.2
 2003/06/02,12:00,21.5,53,21.6,19.3
 2003/06/02,12:15,21.7,52,21.6,19.3
 2003/06/02,12:30,21.6,51,21.9,19.4
 2003/06/02,12:45,21.9,51,22.6,19.4
 2003/06/02,13:00,22,51,23.2,19.5
 2003/06/02,13:15,22.1,51,24.1,19.5
 2003/06/02,13:30,22.2,52,24.4,19.6
 2003/06/02,13:45,22.4,51,25.2,19.6
 2003/06/02,14:00,22.6,51,25.7,19.7
 2003/06/02,14:15,22.8,49,25.6,19.9
 2003/06/02,14:30,23.1,49,24.8,20
 2003/06/02,14:45,23.2,48,24.9,20.1
 2003/06/02,15:00,23.2,47,25,20.1
 2003/06/02,15:15,23.4,47,25.3,20.2
 2003/06/02,15:30,23.4,47,24.2,20.3
 2003/06/02,15:45,23.4,47,24,20.3
 2003/06/02,16:00,23.5,47,24.2,20.4
 2003/06/02,16:15,23.6,47,24.2,20.5
 2003/06/02,16:30,23.5,48,24.2,20.6
 2003/06/02,16:45,23.5,49,24.2,20.7
 2003/06/02,17:00,23.5,49,24.1,20.7
 2003/06/02,17:15,23.5,49,24,20.8
 2003/06/02,17:30,23.5,50,23.9,20.9
 2003/06/02,17:45,23.5,51,23.8,21
 2003/06/02,18:00,23.4,51,23.8,21
 2003/06/02,18:15,23.4,52,24,21.1
 2003/06/02,18:30,23.6,55,23.4,21.2
 2003/06/02,18:45,23.6,57,22.6,21.2
 2003/06/02,19:00,23.6,56,22.1,21.3
 2003/06/02,19:15,23.5,56,21.3,21.4
 2003/06/02,19:30,23.6,57,21,21.5
 2003/06/02,19:45,23.5,56,20.3,21.5
 2003/06/02,20:00,23.4,54,20.1,21.6
 2003/06/02,20:15,23.3,54,19.9,21.6
 2003/06/02,20:30,23.3,55,19.8,21.7
 2003/06/02,20:45,23.4,56,19.2,21.7
 2003/06/02,21:00,23.3,54,19,21.6
 2003/06/02,21:15,23.1,54,19.3,21.6
 2003/06/02,21:30,23,54,19.3,21.6
 2003/06/02,21:45,23,53,19.3,21.7
 2003/06/02,22:00,22.9,52,19.4,21.7
 2003/06/02,22:15,22.8,53,19.1,21.7
 2003/06/02,22:30,22.7,53,19.2,21.8
 2003/06/02,22:45,22.7,53,18.8,21.8
 2003/06/02,23:00,22.6,54,18.5,21.9
 2003/06/02,23:15,22.5,54,18.1,21.9
 2003/06/02,23:30,22.4,55,17.4,21.9
 2003/06/02,23:45,22.5,55,17.6,22
 2003/06/03, 0:00,22.5,55,17.4,22
 2003/06/03, 0:15,22.4,55,17.4,20.9
 2003/06/03, 0:30,22.4,55,17,20.9
 2003/06/03, 0:45,22.3,56,16.7,20.9
 2003/06/03, 1:00,22.3,55,16.4,21
 2003/06/03, 1:15,22.2,55,16.7,21
 2003/06/03, 1:30,22.1,55,16.5,21
 2003/06/03, 1:45,22,55,16.5,21.1
 2003/06/03, 2:00,21.9,55,16.4,21.1
 2003/06/03, 2:15,21.8,54,16.2,21.2
 2003/06/03, 2:30,21.7,55,16,21.2
 2003/06/03, 2:45,21.6,55,15.9,21.2
 2003/06/03, 3:00,21.5,55,15.9,21.2
 2003/06/03, 3:15,21.4,55,15.7,21.2
 2003/06/03, 3:30,21.3,55,15.6,21.3
 2003/06/03, 3:45,21.3,54,16,21.3
 2003/06/03, 4:00,21.2,55,16.6,21.3
 2003/06/03, 4:15,21.1,54,17.2,21.3
 2003/06/03, 4:30,21.1,54,17,21.4
 2003/06/03, 4:45,21,53,16.8,21.4
 2003/06/03, 5:00,21,53,17.3,21.4
 2003/06/03, 5:15,21,52,17.7,21.4
 2003/06/03, 5:30,21,52,17.9,21.4
 2003/06/03, 5:45,20.9,52,17.9,21.4
 2003/06/03, 6:00,20.8,51,18,19.8
 2003/06/03, 6:15,20.8,51,18.2,19.8
 2003/06/03, 6:30,21.1,52,18.5,19.3
 2003/06/03, 6:45,21.2,53,18.7,19.4
 2003/06/03, 7:00,21.3,52,18.8,19.4
 2003/06/03, 7:15,21.6,52,18.8,19.4
 2003/06/03, 7:30,21.6,51,19.1,19.5
 2003/06/03, 7:45,21.6,50,19.5,19.5
 2003/06/03, 8:00,21.8,50,19.5,19.6
 2003/06/03, 8:15,21.9,49,19.6,19.6
 2003/06/03, 8:30,22,48,20.3,19.6
 2003/06/03, 8:45,22.1,48,20.2,19.7
 2003/06/03, 9:00,22.1,45,20.2,19.7
 2003/06/03, 9:15,22.2,45,20.4,19.7
 2003/06/03, 9:30,22.6,40,20.7,19.8
 2003/06/03, 9:45,22.7,41,21.1,19.8
 2003/06/03,10:00,22.9,38,21.4,19.9
 2003/06/03,10:15,23.2,35,21.6,19.9
 2003/06/03,10:30,23.1,32,21.8,19.9
 2003/06/03,10:45,23.1,32,22.2,20
 2003/06/03,11:00,23.4,32,22.3,20
 2003/06/03,11:15,23.5,33,22.7,20.1
 2003/06/03,11:30,23.6,35,23.1,20.1
 2003/06/03,11:45,23.8,34,23.3,20.2
 2003/06/03,12:00,23.8,36,23.5,20.1
 2003/06/03,12:15,24.2,33,23.5,20.1
 2003/06/03,12:30,24.1,35,24.3,20.2
 2003/06/03,12:45,24.4,33,24.7,20.2
 2003/06/03,13:00,24.3,34,25.5,20.3
 2003/06/03,13:15,24.4,34,26.4,20.4
 2003/06/03,13:30,24.5,32,26.5,20.4
 2003/06/03,13:45,24.6,32,27,20.5
 2003/06/03,14:00,24.7,33,27.4,20.6
 2003/06/03,14:15,24.7,32,27.5,20.7
 2003/06/03,14:30,24.9,36,28.2,20.7
 2003/06/03,14:45,25,32,28,20.8
 2003/06/03,15:00,25,34,28.7,20.9
 2003/06/03,15:15,25.2,33,28,20.4
 2003/06/03,15:30,25.2,32,27,20.5
 2003/06/03,15:45,25.2,34,26.9,20.6
 2003/06/03,16:00,25.3,36,26.9,20.7
 2003/06/03,16:15,25.2,37,26.7,20.8
 2003/06/03,16:30,25.2,38,26.5,20.9
 2003/06/03,16:45,25.1,38,26.4,21
 2003/06/03,17:00,25.1,38,26.2,21
 2003/06/03,17:15,25,38,26,21.1
 2003/06/03,17:30,25,39,25.6,21.2
 2003/06/03,17:45,24.8,36,25.3,21.3
 2003/06/03,18:00,24.7,37,25.1,21.4
 2003/06/03,18:15,24.6,39,24.8,21.5
 2003/06/03,18:30,24.6,40,24.4,21.5
 2003/06/03,18:45,24.5,39,24.1,21.6
 2003/06/03,19:00,24.5,41,23.9,21.7
 2003/06/03,19:15,24.4,39,23.7,21.7
 2003/06/03,19:30,24.2,39,23.5,21.8
 2003/06/03,19:45,24.1,39,23.1,21.9
 2003/06/03,20:00,24.2,42,22.6,22
 2003/06/03,20:15,24.2,43,22.2,22
 2003/06/03,20:30,24.3,43,21.8,22.1
 2003/06/03,20:45,24.1,44,21.5,22.1
 2003/06/03,21:00,24,45,20.8,22.2
 2003/06/03,21:15,23.9,44,20.3,22.2
 2003/06/03,21:30,23.8,47,20.1,22.3
 2003/06/03,21:45,23.9,46,19.6,22.1
 2003/06/03,22:00,23.8,45,19.2,22.1
 2003/06/03,22:15,23.8,45,19.5,22.1
 2003/06/03,22:30,23.9,47,19.4,22.2
 2003/06/03,22:45,23.8,46,19.1,22.2
 2003/06/03,23:00,23.8,46,18.9,22.3
 2003/06/03,23:15,23.7,46,18.9,22.3
 2003/06/03,23:30,23.6,46,19.1,22.3
 2003/06/03,23:45,23.6,46,19.5,22.4
 2003/06/04, 0:00,23.6,47,19.3,22.4
 2003/06/04, 0:15,23.5,47,19.9,22.4
 2003/06/04, 0:30,23.4,47,19.6,22.5
 2003/06/04, 0:45,23.4,47,19.8,22.5
 2003/06/04, 1:00,23.2,47,20,22.5
 2003/06/04, 1:15,23.2,47,19.5,22
 2003/06/04, 1:30,23.1,47,19.8,21.3
 2003/06/04, 1:45,23,47,19.6,21.3
 2003/06/04, 2:00,22.9,47,19.3,21.3
 2003/06/04, 2:15,22.9,47,19.1,21.4
 2003/06/04, 2:30,22.8,47,19.1,21.4
 2003/06/04, 2:45,22.7,48,18.7,21.5
 2003/06/04, 3:00,22.7,47,18.9,21.5
 2003/06/04, 3:15,22.6,48,19.3,21.5
 2003/06/04, 3:30,22.5,48,19.3,21.6
 2003/06/04, 3:45,22.5,48,19.2,21.6
 2003/06/04, 4:00,22.4,47,19.2,21.7
 2003/06/04, 4:15,22.4,47,19.3,21.7
 2003/06/04, 4:30,22.3,48,19.3,21.7
 2003/06/04, 4:45,22.3,48,19.3,21.8
 2003/06/04, 5:00,22.2,48,19.4,21.8
 2003/06/04, 5:15,22.2,48,19.5,21.8
 2003/06/04, 5:30,22.1,48,19.4,21.9
 2003/06/04, 5:45,22.1,48,19.5,21.8
 2003/06/04, 6:00,22.1,48,19.6,20.6
 2003/06/04, 6:15,22.2,48,19.5,20.6
 2003/06/04, 6:30,22.4,49,20,19.9
 2003/06/04, 6:45,22.4,49,20.1,19.9
 2003/06/04, 7:00,22.6,49,20.3,19.9
 2003/06/04, 7:15,22.7,49,20.2,20
 2003/06/04, 7:30,22.7,49,20.5,20.1
 2003/06/04, 7:45,22.6,49,20.6,20.1
 2003/06/04, 8:00,22.7,49,20.6,20.2
 2003/06/04, 8:15,22.8,50,21.1,20.2
 2003/06/04, 8:30,22.7,50,21.1,20.3
 2003/06/04, 8:45,22.7,49,21.2,20.3
 2003/06/04, 9:00,22.7,50,21.5,20.4
 2003/06/04, 9:15,22.7,50,21.7,20.4
 2003/06/04, 9:30,22.8,50,21.9,20.5
 2003/06/04, 9:45,22.8,50,22.1,20.5
 2003/06/04,10:00,22.9,50,22.2,20.6
 2003/06/04,10:15,22.9,49,22.3,20.6
 2003/06/04,10:30,22.9,50,22.3,19.9
 2003/06/04,10:45,22.9,50,22.2,19.9
 2003/06/04,11:00,22.9,52,22.4,19.9
 2003/06/04,11:15,22.9,52,22.4,20
 2003/06/04,11:30,22.9,53,22.5,20
 2003/06/04,11:45,23,52,22.6,20.1
 2003/06/04,12:00,23.1,53,22.8,20.1
 2003/06/04,12:15,23.2,53,22.8,20.2
 2003/06/04,12:30,23.3,53,22.8,20.3
 2003/06/04,12:45,23.4,53,23,20.4
 2003/06/04,13:00,23.4,53,23,20.4
 2003/06/04,13:15,23.6,54,22.9,20.5
 2003/06/04,13:30,23.5,55,22.9,20.5
 2003/06/04,13:45,23.5,55,22.9,20.6
 2003/06/04,14:00,23.5,55,22.9,20.7
 2003/06/04,14:15,23.4,56,23.1,20.7
 2003/06/04,14:30,23.5,55,23.1,20.8
 2003/06/04,14:45,23.6,55,23.3,20.8
 2003/06/04,15:00,23.5,55,23.8,20.9
 2003/06/04,15:15,23.7,54,24,21
 2003/06/04,15:30,23.8,53,24,21
 2003/06/04,15:45,23.8,52,24.1,21.1
 2003/06/04,16:00,23.8,52,24.1,21.2
 2003/06/04,16:15,23.9,51,24.1,21.2
 2003/06/04,16:30,23.9,51,24,21.3
 2003/06/04,16:45,23.9,48,24,21.4
 2003/06/04,17:00,24,51,23.8,21.4
 2003/06/04,17:15,24,51,23.7,21.5
 2003/06/04,17:30,24,50,23.6,21.6
 2003/06/04,17:45,23.8,49,23.8,21.7
 2003/06/04,18:00,23.7,49,23.8,21.7
 2003/06/04,18:15,23.9,50,24.1,21.8
 2003/06/04,18:30,23.8,48,23.4,21.8
 2003/06/04,18:45,23.8,48,22.7,21.9
 2003/06/04,19:00,24.1,50,22.2,22
 2003/06/04,19:15,24.4,51,21.7,22
 2003/06/04,19:30,24.2,52,21.1,22.1
 2003/06/04,19:45,24,51,20.8,22.1
 2003/06/04,20:00,23.9,51,20.4,22.2
 2003/06/04,20:15,23.8,52,20.1,22.2
 2003/06/04,20:30,23.6,52,20.2,22.3
 2003/06/04,20:45,23.7,53,19.9,22.3
 2003/06/04,21:00,23.6,53,19.5,22.4
 2003/06/04,21:15,23.6,53,19.5,22.4
 2003/06/04,21:30,23.6,53,19.5,22.4
 2003/06/04,21:45,23.7,53,19.6,22.5
 2003/06/04,22:00,23.6,53,20,22.5
 2003/06/04,22:15,23.6,53,20.5,22.5
 2003/06/04,22:30,23.6,53,19.5,22.6
 2003/06/04,22:45,23.6,53,19.1,21.5
 2003/06/04,23:00,23.4,54,19.1,21.5
 2003/06/04,23:15,23.3,54,19.5,21.6
 2003/06/04,23:30,23.2,54,19.2,21.6
 2003/06/04,23:45,23.1,53,19.1,21.7
 2003/06/05, 0:00,23,54,18.8,21.7
 2003/06/05, 0:15,22.9,54,18.4,21.7
 2003/06/05, 0:30,22.8,53,17.8,21.8
 2003/06/05, 0:45,22.7,53,17.7,21.8
 2003/06/05, 1:00,22.7,53,17.6,21.8
 2003/06/05, 1:15,22.6,53,17.5,21.9
 2003/06/05, 1:30,22.5,54,17.1,21.9
 2003/06/05, 1:45,22.4,53,17.6,21.9
 2003/06/05, 2:00,22.3,54,18.1,22
 2003/06/05, 2:15,22.2,53,18.7,22
 2003/06/05, 2:30,22.2,54,18.7,22
 2003/06/05, 2:45,22.1,53,18.7,22
 2003/06/05, 3:00,22,54,18.3,22.1
 2003/06/05, 3:15,22,54,17.2,22.1
 2003/06/05, 3:30,21.9,54,17.3,22.1
 2003/06/05, 3:45,21.8,54,16.4,22.1
 2003/06/05, 4:00,21.7,54,16,22.1
 2003/06/05, 4:15,21.7,54,15.7,22.1
 2003/06/05, 4:30,21.6,54,15.5,22.1
 2003/06/05, 4:45,21.6,54,15.6,22.2
 2003/06/05, 5:00,21.5,55,15.5,22.2
 2003/06/05, 5:15,21.5,54,15.5,22.2
 2003/06/05, 5:30,21.5,54,16.2,22.2
 2003/06/05, 5:45,21.5,54,16.4,22.2
 2003/06/05, 6:00,21.4,54,16.9,20.3
 2003/06/05, 6:15,21.6,55,17.4,20.3
 2003/06/05, 6:30,21.8,56,17.9,19.6
 2003/06/05, 6:45,22,56,18.3,19.6
 2003/06/05, 7:00,22.2,56,18.6,19.7
 2003/06/05, 7:15,22.4,55,19.5,19.7
 2003/06/05, 7:30,22.4,55,19.1,19.7
 2003/06/05, 7:45,22.3,55,19.9,19.8
 2003/06/05, 8:00,22.4,56,20,19.8
 2003/06/05, 8:15,22.5,56,20.2,19.8
 2003/06/05, 8:30,22.6,55,20.2,19.9
 2003/06/05, 8:45,22.6,56,20.6,19.9
 2003/06/05, 9:00,22.9,56,20.9,20
 2003/06/05, 9:15,23,56,21.2,20
 2003/06/05, 9:30,23.1,56,21.6,20.1
 2003/06/05, 9:45,22.9,56,21.5,20.1
 2003/06/05,10:00,22.6,57,21.8,20.1
 2003/06/05,10:15,22.6,58,21.8,20.2
 2003/06/05,10:30,22.6,59,21.8,20.2
 2003/06/05,10:45,22.8,59,22.1,20.3
 2003/06/05,11:00,22.7,59,22.2,20.3
 2003/06/05,11:15,23.1,57,22.3,20.4
 2003/06/05,11:30,23.2,57,22.4,20.4
 2003/06/05,11:45,23.4,58,22.8,20.5
 2003/06/05,12:00,23.6,57,23,20.6
 2003/06/05,12:15,23.6,57,23.4,20.6
 2003/06/05,12:30,23.7,57,23.7,20.7
 2003/06/05,12:45,23.8,56,24,20.8
 2003/06/05,13:00,24,56,24.4,20.8
 2003/06/05,13:15,24.2,56,25,20.9
 2003/06/05,13:30,24.2,56,25.7,20.9
 2003/06/05,13:45,24.4,55,26.4,21
 2003/06/05,14:00,24.5,55,26.7,21.1
 2003/06/05,14:15,24.6,54,26.9,21.1
 2003/06/05,14:30,24.6,53,26.4,21.2
 2003/06/05,14:45,24.8,52,26,21.3
 2003/06/05,15:00,24.9,51,26.4,21.3
 2003/06/05,15:15,25,51,26.1,21.4
 2003/06/05,15:30,25,52,25.5,21.5
 2003/06/05,15:45,25,52,25.4,21.6
 2003/06/05,16:00,25,51,25.4,21.8
 2003/06/05,16:15,25,51,25.4,21.9
 2003/06/05,16:30,25.1,52,25.4,21.9
 2003/06/05,16:45,25.1,52,25.3,22
 2003/06/05,17:00,25.1,52,25.3,21.8
 2003/06/05,17:15,25,52,25.2,21.8
 2003/06/05,17:30,24.9,52,25.1,21.9
 2003/06/05,17:45,24.9,52,25.3,22
 2003/06/05,18:00,25,52,25.3,22
 2003/06/05,18:15,25.1,54,25.4,22.1
 2003/06/05,18:30,25.2,54,25.2,22.1
 2003/06/05,18:45,25.1,54,24.8,22.2
 2003/06/05,19:00,25,55,24.3,22.3
 2003/06/05,19:15,25.1,54,24.2,22.3
 2003/06/05,19:30,25.1,53,24,22.5
 2003/06/05,19:45,25.1,53,23.7,22.1
 2003/06/05,20:00,25,53,23.5,22.1
 2003/06/05,20:15,25,53,22.8,22.2
 2003/06/05,20:30,24.9,54,23.2,22.2
 2003/06/05,20:45,24.9,52,23.7,22.3
 2003/06/05,21:00,24.8,53,22.9,22.3
 2003/06/05,21:15,24.8,53,22.3,22.4
 2003/06/05,21:30,24.7,54,22.2,22.5
 2003/06/05,21:45,24.7,54,22,22.4
 2003/06/05,22:00,24.8,55,22.3,22.4
 2003/06/05,22:15,24.7,55,21.9,22.4
 2003/06/05,22:30,24.9,56,21.9,22.5
 2003/06/05,22:45,24.9,55,21.1,22.5
 2003/06/05,23:00,24.9,56,20.1,22.6
 2003/06/05,23:15,24.8,55,20,22.6
 2003/06/05,23:30,24.7,55,20.6,22.7
 2003/06/05,23:45,24.7,54,19.5,22.7
 2003/06/06, 0:00,24.5,53,19.2,22.7
 2003/06/06, 0:15,24.3,53,18.8,22.8
 2003/06/06, 0:30,24.2,53,19,22.8
 2003/06/06, 0:45,24,53,19,22.9
 2003/06/06, 1:00,24,53,18.7,22.9
 2003/06/06, 1:15,23.8,52,18.7,22.9
 2003/06/06, 1:30,23.7,52,18.9,21.9
 2003/06/06, 1:45,23.7,52,19.5,21.9
 2003/06/06, 2:00,23.5,52,19.8,21.9
 2003/06/06, 2:15,23.4,53,18.9,22
 2003/06/06, 2:30,23.4,53,18.3,22
 2003/06/06, 2:45,23.3,53,17.9,22
 2003/06/06, 3:00,23.2,54,18,22.1
 2003/06/06, 3:15,23.2,54,18.9,22.1
 2003/06/06, 3:30,23.1,54,18.3,22.1
 2003/06/06, 3:45,23,54,17.8,22.2
 2003/06/06, 4:00,22.9,53,17.1,22.2
 2003/06/06, 4:15,22.8,53,17.3,22.2
 2003/06/06, 4:30,22.7,53,16.9,22.3
 2003/06/06, 4:45,22.7,52,16.7,22.3
 2003/06/06, 5:00,22.5,51,16.5,22.3
 2003/06/06, 5:15,22.4,51,16.5,22.3
 2003/06/06, 5:30,22.4,51,16.3,22.4
 2003/06/06, 5:45,22.3,51,16.4,22.4
 2003/06/06, 6:00,22.3,51,16.7,20.9
 2003/06/06, 6:15,22.2,52,17.5,20.9
 2003/06/06, 6:30,22.4,53,18.1,19.9
 2003/06/06, 6:45,22.5,53,18.5,20
 2003/06/06, 7:00,22.5,53,18.9,19.9
 2003/06/06, 7:15,22.8,51,19.1,19.9
 2003/06/06, 7:30,22.7,50,19.5,20
 2003/06/06, 7:45,22.7,49,19.9,20
 2003/06/06, 8:00,22.7,48,20.1,20.1
 2003/06/06, 8:15,22.7,47,20.7,20.1
 2003/06/06, 8:30,22.9,47,20.9,20.1
 2003/06/06, 8:45,23,43,21.2,20.4
 2003/06/06, 9:00,23.1,42,21.5,20.5
 2003/06/06, 9:15,23.2,40,21.7,20.5
 2003/06/06, 9:30,23.4,40,21.8,20.6
 2003/06/06, 9:45,23.6,41,22,20.6
 2003/06/06,10:00,23.7,40,22.4,20.7
 2003/06/06,10:15,23.7,39,22.6,20.7
 2003/06/06,10:30,24,41,23.1,20.8
 2003/06/06,10:45,24.2,43,23.5,20.8
 2003/06/06,11:00,24.3,46,23.9,20.9
 2003/06/06,11:15,24.5,48,24.2,21
 2003/06/06,11:30,24.7,50,24.8,21
 2003/06/06,11:45,24.8,49,24.8,21.1
 2003/06/06,12:00,24.9,50,25,21.2
 2003/06/06,12:15,25.1,49,25.5,21.1
 2003/06/06,12:30,25.5,47,25.9,21.2
 2003/06/06,12:45,25.6,47,26.4,21.3
 2003/06/06,13:00,25.8,46,26.8,21.3
 2003/06/06,13:15,25.9,45,27.1,21.4
 2003/06/06,13:30,26.1,44,27.7,21.5
 2003/06/06,13:45,26.3,44,28,21.5
 2003/06/06,14:00,26.5,43,28.5,21.6
 2003/06/06,14:15,26.5,42,28.3,21.7
 2003/06/06,14:30,26.5,42,27.5,21.8
 2003/06/06,14:45,26.5,43,27.4,21.9
 2003/06/06,15:00,26.5,42,27.6,22
 2003/06/06,15:15,26.5,43,27.8,22.1
 2003/06/06,15:30,26.5,43,27.1,22.3
 2003/06/06,15:45,26.5,44,26.8,22.4
 2003/06/06,16:00,26.5,45,26.8,22.5
 2003/06/06,16:15,26.5,46,26.7,22.5
 2003/06/06,16:30,26.4,44,26.5,22.6
 2003/06/06,16:45,26.2,41,26.1,22.6
 2003/06/06,17:00,26.1,42,26,22.7
 2003/06/06,17:15,26.1,43,25.7,22.8
 2003/06/06,17:30,26,44,25.6,22.7
 2003/06/06,17:45,25.9,45,25.5,22.8
 2003/06/06,18:00,25.9,47,25.3,22.8
 2003/06/06,18:15,25.8,48,25.2,22.9
 2003/06/06,18:30,25.9,52,25,22.9
 2003/06/06,18:45,26,52,24.8,23
 2003/06/06,19:00,26,51,24.7,23
 2003/06/06,19:15,26,51,24.4,23.1
 2003/06/06,19:30,25.9,48,24.4,23.1
 2003/06/06,19:45,25.9,46,24.2,23.2
 2003/06/06,20:00,25.7,46,24.1,23.2
 2003/06/06,20:15,25.5,47,24,23.3
 2003/06/06,20:30,25.4,48,23.9,23.3
 2003/06/06,20:45,25.4,49,23.9,23.3
 2003/06/06,21:00,25.4,49,24,23.1
 2003/06/06,21:15,25.4,49,23.7,23.1
 2003/06/06,21:30,25.2,51,23.8,23.2
 2003/06/06,21:45,25.2,51,23.8,23.2
 2003/06/06,22:00,25.2,51,23.7,23.3
 2003/06/06,22:15,25.2,52,23.6,23.3
 2003/06/06,22:30,25.2,52,23.6,23.3
 2003/06/06,22:45,25.2,53,23.4,23.4
 2003/06/06,23:00,25.2,53,23.5,23.4
 2003/06/06,23:15,25.2,53,23.4,23.4
 2003/06/06,23:30,25.3,53,23.4,23.5
 2003/06/06,23:45,25.2,54,23.2,23.5
 2003/06/07, 0:00,25.3,55,23,23.5
 2003/06/07, 0:15,25.2,56,22.9,22.9
 2003/06/07, 0:30,25.1,57,22.7,22.9
 2003/06/07, 0:45,25,57,22.7,23
 2003/06/07, 1:00,24.9,58,22.7,22.1
 2003/06/07, 1:15,24.9,58,22.3,22.2
 2003/06/07, 1:30,24.8,58,22,22.2
 2003/06/07, 1:45,24.7,59,21.9,22.2
 2003/06/07, 2:00,24.6,59,21.9,22.3
 2003/06/07, 2:15,24.6,60,22.2,22.3
 2003/06/07, 2:30,24.6,60,22.2,22.4
 2003/06/07, 2:45,24.5,60,22.4,22.4
 2003/06/07, 3:00,24.5,60,22.4,22.5
 2003/06/07, 3:15,24.4,61,22.4,22.5
 2003/06/07, 3:30,24.4,61,22.3,22.6
 2003/06/07, 3:45,24.4,60,22.3,22.6
 2003/06/07, 4:00,24.4,60,21.7,22.7
 2003/06/07, 4:15,24.3,60,21.3,22.7
 2003/06/07, 4:30,24.3,60,21.1,22.8
 2003/06/07, 4:45,24.2,60,21.1,22.8
 2003/06/07, 5:00,24.1,60,20.9,22.8
 2003/06/07, 5:15,24.1,60,20.7,22.9
 2003/06/07, 5:30,24,61,20.6,22.9
 2003/06/07, 5:45,23.9,61,20.4,22.9
 2003/06/07, 6:00,23.8,62,20.3,23
 2003/06/07, 6:15,23.8,62,20.3,23
 2003/06/07, 6:30,23.8,62,20.4,23.1
 2003/06/07, 6:45,23.7,63,20.6,23.1
 2003/06/07, 7:00,23.7,62,20.9,22.3
 2003/06/07, 7:15,23.7,62,21.1,22.3
 2003/06/07, 7:30,23.8,62,21.1,22.3
 2003/06/07, 7:45,23.8,62,21.2,22.4
 2003/06/07, 8:00,23.8,61,21.4,22.1
 2003/06/07, 8:15,24.1,61,21.6,22
 2003/06/07, 8:30,24.4,61,21.8,22.1
 2003/06/07, 8:45,24.5,60,22.2,22.1
 2003/06/07, 9:00,24.7,59,22.6,21.9
 2003/06/07, 9:15,24.6,58,23.4,21.9
 2003/06/07, 9:30,24.7,58,23.4,22
 2003/06/07, 9:45,24.7,58,23.4,22
 2003/06/07,10:00,25.1,56,24,22.1
 2003/06/07,10:15,24.8,55,23.7,22.1
 2003/06/07,10:30,25,55,24,22.2
 2003/06/07,10:45,25.1,52,24.2,22.1
 2003/06/07,11:00,25,53,24.4,22
 2003/06/07,11:15,24.9,54,24.3,22.1
 2003/06/07,11:30,25.2,55,24.8,22
 2003/06/07,11:45,25.3,49,25.2,21.4
 2003/06/07,12:00,25.2,45,25.2,21.4
 2003/06/07,12:15,25.4,45,25.9,21.5
 2003/06/07,12:30,25.4,38,25.7,21.5
 2003/06/07,12:45,25.4,43,25.7,21.6
 2003/06/07,13:00,25.4,44,25.6,21.7
 2003/06/07,13:15,25.4,45,25.5,21.7
 2003/06/07,13:30,25.3,45,25.4,21.8
 2003/06/07,13:45,25.3,45,25.3,21.9
 2003/06/07,14:00,25.3,42,26.1,21.9
 2003/06/07,14:15,25.5,43,27.1,22
 2003/06/07,14:30,25.6,42,26.4,22.1
 2003/06/07,14:45,25.6,42,26.1,22.1
 2003/06/07,15:00,25.7,43,26,22.2
 2003/06/07,15:15,25.8,45,26,22.3
 2003/06/07,15:30,25.9,49,25.6,22.3
 2003/06/07,15:45,25.9,49,25.4,22.6
 2003/06/07,16:00,25.8,50,25.3,22.7
 2003/06/07,16:15,25.7,52,24.9,22.7
 2003/06/07,16:30,25.7,53,24.9,22.7
 2003/06/07,16:45,25.7,54,24.7,22.8
 2003/06/07,17:00,25.7,54,24.5,22.8
 2003/06/07,17:15,25.8,54,24.6,22.6
 2003/06/07,17:30,25.8,53,25.4,22.7
 2003/06/07,17:45,25.8,54,25.5,22.7
 2003/06/07,18:00,25.7,55,25.6,22.7
 2003/06/07,18:15,25.6,56,24.6,22.8
 2003/06/07,18:30,25.7,57,24.3,22.8
 2003/06/07,18:45,25.9,58,24,22.8
 2003/06/07,19:00,25.9,58,23.9,22.9
 2003/06/07,19:15,25.7,57,23.5,22.9
 2003/06/07,19:30,25.6,57,23.4,23
 2003/06/07,19:45,25.5,58,23,23
 2003/06/07,20:00,25.4,58,23,23.1